This is the latest recevied weather packets stored in our database for station/object WA4IKQ. If no packets are shown the sender has not sent any weather packets the latest 10 day(s).
| Time | Temp. | Humidity | Pressure | Rain* | Wind** | Luminosity | Snow |
|---|---|---|---|---|---|---|---|
| 1777531578 | 23.33° C | 85% | 1011.6 hPa | 0 mm | 0 m/s | - | - |
| 1777531154 | 23.33° C | 85% | 1011.8 hPa | 0 mm | 0.89 m/s, 203° | - | - |
| 1777531048 | 23.33° C | 85% | 1011.8 hPa | 0 mm | 0.89 m/s, 203° | - | - |
| 1777530748 | 23.33° C | 84% | 1011.8 hPa | 0 mm | 0.45 m/s, 215° | - | - |
| 1777529912 | 23.33° C | 84% | 1012.2 hPa | 0 mm | 0 m/s | - | - |
| 1777529849 | 23.33° C | 84% | 1012.2 hPa | 0 mm | 0 m/s | - | - |
| 1777529310 | 23.33° C | 83% | 1012.2 hPa | 0 mm | 0 m/s | - | - |
| 1777529247 | 23.33° C | 83% | 1012.2 hPa | 0 mm | 0 m/s | - | - |
| 1777529060 | 23.89° C | 83% | 1012.3 hPa | 0 mm | 0.89 m/s, 225° | - | - |
| 1777529013 | 23.89° C | 83% | 1012.3 hPa | 0 mm | 0.89 m/s, 225° | - | - |
| 1777528947 | 23.89° C | 83% | 1012.3 hPa | 0 mm | 0.89 m/s, 225° | - | - |
| 1777528706 | 23.89° C | 83% | 1012.5 hPa | 0 mm | 0.45 m/s, 208° | - | - |
| 1777528647 | 23.89° C | 83% | 1012.5 hPa | 0 mm | 0.45 m/s, 208° | - | - |
| 1777528348 | 23.89° C | 83% | 1012.5 hPa | 0 mm | 0 m/s | - | - |
| 1777528216 | 23.89° C | 82% | 1012.5 hPa | 0 mm | 1.34 m/s, 201° | - | - |
| 1777528048 | 23.89° C | 82% | 1012.5 hPa | 0 mm | 1.34 m/s, 201° | - | - |
| 1777527668 | 23.89° C | 82% | 1012.7 hPa | 0 mm | 0.89 m/s, 208° | - | - |
| 1777527622 | 23.89° C | 82% | 1012.9 hPa | 0 mm | 0 m/s | - | - |
| 1777527449 | 23.89° C | 82% | 1012.7 hPa | 0 mm | 0.89 m/s, 208° | - | - |
| 1777527427 | 23.89° C | 82% | 1013.1 hPa | 0 mm | 0.45 m/s, 221° | - | - |
| 1777527146 | 23.89° C | 82% | 1012.9 hPa | 0 mm | 0 m/s | - | - |
| 1777527104 | 23.89° C | 82% | 1013.2 hPa | 0 mm | 1.79 m/s, 238° | - | - |
| 1777526846 | 23.89° C | 82% | 1013.1 hPa | 0 mm | 0.45 m/s, 221° | - | - |
| 1777526546 | 23.89° C | 82% | 1013.2 hPa | 0 mm | 1.79 m/s, 238° | - | - |
| 1777526410 | 23.89° C | 81% | 1013.1 hPa | 0 mm | 1.34 m/s, 190° | - | - |
* Rain latest hour (hover to see other rain measurements)
** Current wind speed in m/s (hover to see current wind gust speed)